FTCO2: Ft Cobb Lake, OK

Data processed at Thu Jan 04 2018 23:01


All information presented herein is the property of the government of the United States of America and may be revised or deleted at any time without prior notice.
Dissemination of this information without the expressed written consent of the Public Affairs Office, Tulsa District U.S. Army Corps of Engineers is strictly prohibited.
These data are gathered electronically and, as presented, have not undergone any form of quality control. These data are not guaranteed to be valid or correct.
Go to home page.
Go to station list.

Upstream stations:

Downstream station:
Previous Day
Next Day
Current Day
    
SHEF ID:       FTCO2     Ft Cobb Lake, OK
STATION TYPE:  RESERVOIR
Normal Pool:  Bottom =  1300.00, Top =  1342.00

               PRECIP PRECIP(A) ELEVATION   STORAGE    INFLOW   RELEASE   VOLTAGE  BAT-LOAD
                   in        in        ft     ac-ft       cfs       cfs      volt      volt
              Ccp-Rev   Ccp-Rev   Ccp-Rev   Ccp-Rev  Regi-Rev  Regi-Rev   Ccp-Rev   Ccp-Rev
(US/Central)
01/02 00:00      0.00      0.00   1342.18     72379         0        93     13.72     13.53
01/02 01:00      0.00      0.00   1342.17     72341         0        93     13.72     13.53
01/02 02:00      0.00      0.00   1342.17     72341         0        93     13.72     13.53
01/02 03:00      0.00      0.00   1342.17     72341         0        93     13.72     13.53
01/02 04:00      0.00      0.00   1342.16     72303         0        93     13.73     13.53
01/02 05:00      0.00      0.00   1342.16     72303         3        93     13.72     13.53
01/02 06:00      0.00      0.00   1342.16     72303         7        93     13.72     13.53
01/02 07:00      0.00      0.00   1342.17     72341        10        93     13.72     13.53
01/02 08:00      0.00      0.00   1342.16     72303        10        93     13.72     13.53
01/02 09:00      0.00      0.00   1342.16     72303        10        93     13.72     13.53
01/02 10:00      0.00      0.00   1342.16     72303         7        93     13.90     13.53
01/02 11:00      0.00      0.00   1342.16     72303         3        93     13.84     13.59
01/02 12:00      0.00      0.00   1342.16     72303         0        93     13.72     13.65
01/02 13:00      0.00      0.00   1342.15     72265         0        93     13.77     13.30
01/02 14:00      0.00      0.00   1342.14     72227         0        93     13.75     13.53
01/02 15:00      0.00      0.00   1342.14     72227         1        93     13.72     13.59
01/02 16:00      0.00      0.00   1342.13     72189         1        93     13.72     13.59
01/02 17:00      0.00      0.00   1342.12     72151        21        93     13.73     13.59
01/02 18:00      0.00      0.00   1342.13     72189        24        93     13.73     13.59
01/02 19:00      0.00      0.00   1342.14     72227        27        93     13.72     13.53
01/02 20:00      0.00      0.00   1342.14     72227        47        93     13.72     13.53
01/02 21:00      0.00      0.00   1342.14     72227        49        93     13.72     13.53
01/02 22:00      0.00      0.00   1342.15     72265        30        93     13.72     13.53
01/02 23:00      0.00      0.00   1342.15     72265        26        93     13.72     13.53